When you browse on this site, cookies collect data to enhance your experience and personalize the content and advertising you see.
Visit our Privacy Policy to learn more. By continuing to use the site, you agree to this use of cookies and data.
  • In Österreich
  • Länderverzeichnis
  • Für 7 Tage
  • Wassertemperatur
  • Wetterkarte
  • News
  • Widgets
  • user-avatar
    Anmelden

    Stündliche Wetter Wien

    Heute, 23 Februar, Sonntag

    Zeit Temperatur Niederschläge Wind Luftdruck Luftfeuchtigkeit
    00:00 +8°C° 0 mm 3 m/S 749 mmHg 53%
    01:00 +9°C° 0 mm 3 m/S 748 mmHg 56%
    02:00 +8°C° 0.2 mm 4 m/S 748 mmHg 62%
    03:00 +8°C° 0.2 mm 5 m/S 748 mmHg 68%
    04:00 +7°C° 0.2 mm 6 m/S 747 mmHg 74%
    05:00 +8°C° 0.2 mm 6 m/S 748 mmHg 74%
    06:00 +8°C° 0.2 mm 6 m/S 748 mmHg 74%
    07:00 +8°C° 0.2 mm 6 m/S 748 mmHg 75%
    08:00 +9°C° 0 mm 6 m/S 747 mmHg 72%
    09:00 +9°C° 0 mm 7 m/S 747 mmHg 69%
    10:00 +10°C° 0 mm 7 m/S 746 mmHg 66%
    11:00 +11°C° 0 mm 7 m/S 746 mmHg 65%
    12:00 +11°C° 0 mm 7 m/S 745 mmHg 64%
    13:00 +12°C° 0 mm 7 m/S 745 mmHg 62%
    14:00 +11°C° 0 mm 7 m/S 744 mmHg 63%
    15:00 +11°C° 0 mm 7 m/S 743 mmHg 64%
    16:00 +11°C° 0 mm 6 m/S 741 mmHg 65%
    17:00 +11°C° 0 mm 6 m/S 741 mmHg 65%
    18:00 +11°C° 0 mm 6 m/S 741 mmHg 66%
    19:00 +11°C° 0 mm 6 m/S 741 mmHg 66%
    20:00 +12°C° 0 mm 7 m/S 740 mmHg 65%
    21:00 +12°C° 0 mm 9 m/S 740 mmHg 64%
    22:00 +12°C° 0 mm 10 m/S 739 mmHg 62%
    23:00 +12°C° 0.3 mm 10 m/S 740 mmHg 65%

    Morgen, 24 Februar, Montag

    Zeit Temperatur Niederschläge Wind Luftdruck Luftfeuchtigkeit
    00:00 +12°C° 0.3 mm 10 m/S 740 mmHg 68%
    01:00 +11°C° 0.3 mm 11 m/S 741 mmHg 71%
    02:00 +9°C° 0.5 mm 11 m/S 742 mmHg 64%
    03:00 +7°C° 0.5 mm 10 m/S 743 mmHg 56%
    04:00 +5°C° 0.5 mm 10 m/S 744 mmHg 49%
    05:00 +3°C° 0 mm 9 m/S 745 mmHg 49%
    06:00 +2°C° 0 mm 8 m/S 746 mmHg 50%
    07:00 +3°C° 0 mm 6 m/S 747 mmHg 51%
    08:00 +3°C° 0 mm 6 m/S 747 mmHg 50%
    09:00 +4°C° 0 mm 6 m/S 748 mmHg 49%
    10:00 +5°C° 0 mm 6 m/S 748 mmHg 48%
    11:00 +5°C° 0 mm 6 m/S 748 mmHg 47%
    12:00 +7°C° 0 mm 6 m/S 748 mmHg 46%
    13:00 +8°C° 0 mm 5 m/S 748 mmHg 46%
    14:00 +8°C° 0 mm 5 m/S 747 mmHg 48%
    15:00 +7°C° 0 mm 4 m/S 746 mmHg 51%
    16:00 +7°C° 0 mm 4 m/S 746 mmHg 53%
    17:00 +8°C° 0 mm 3 m/S 745 mmHg 58%
    18:00 +8°C° 0 mm 2 m/S 745 mmHg 62%
    19:00 +8°C° 0 mm 2 m/S 744 mmHg 66%
    20:00 +7°C° 0 mm 2 m/S 743 mmHg 70%
    21:00 +7°C° 0 mm 2 m/S 743 mmHg 74%
    22:00 +7°C° 0 mm 1 m/S 742 mmHg 77%
    23:00 +6°C° 0 mm 2 m/S 742 mmHg 78%

    übermorgen, 25 Februar, Dienstag

    Zeit Temperatur Niederschläge Wind Luftdruck Luftfeuchtigkeit
    00:00 +6°C° 0 mm 2 m/S 741 mmHg 79%
    01:00 +6°C° 0 mm 2 m/S 740 mmHg 80%
    02:00 +6°C° 0 mm 2 m/S 740 mmHg 81%
    03:00 +7°C° 0 mm 1 m/S 739 mmHg 82%
    04:00 +6°C° 0 mm 1 m/S 738 mmHg 83%
    05:00 +7°C° 0 mm 1 m/S 738 mmHg 81%
    06:00 +6°C° 0 mm 2 m/S 738 mmHg 79%
    07:00 +6°C° 0 mm 2 m/S 738 mmHg 78%
    08:00 +8°C° 0 mm 3 m/S 737 mmHg 71%
    09:00 +9°C° 0 mm 3 m/S 737 mmHg 64%
    10:00 +10°C° 0 mm 4 m/S 737 mmHg 57%
    11:00 +10°C° 0 mm 5 m/S 736 mmHg 53%
    12:00 +12°C° 0 mm 5 m/S 736 mmHg 50%
    13:00 +13°C° 0 mm 5 m/S 736 mmHg 46%
    14:00 +13°C° 0 mm 4 m/S 735 mmHg 49%
    15:00 +13°C° 0 mm 3 m/S 734 mmHg 51%
    16:00 +13°C° 0 mm 2 m/S 734 mmHg 53%
    17:00 +11°C° 0 mm 3 m/S 734 mmHg 59%
    18:00 +11°C° 0 mm 3 m/S 734 mmHg 65%
    19:00 +10°C° 0 mm 3 m/S 734 mmHg 71%
    20:00 +8°C° 0.5 mm 4 m/S 734 mmHg 73%
    21:00 +8°C° 0.5 mm 5 m/S 734 mmHg 75%
    22:00 +7°C° 0.5 mm 5 m/S 734 mmHg 77%
    23:00 +7°C° 0.2 mm 4 m/S 733 mmHg 74%

    26 Februar, Mittwoch

    Zeit Temperatur Niederschläge Wind Luftdruck Luftfeuchtigkeit
    00:00 +6°C° 0.2 mm 4 m/S 733 mmHg 71%
    01:00 +7°C° 0.2 mm 3 m/S 733 mmHg 69%
    02:00 +5°C° 0 mm 3 m/S 733 mmHg 70%
    03:00 +5°C° 0 mm 3 m/S 732 mmHg 72%
    04:00 +5°C° 0 mm 3 m/S 732 mmHg 74%
    05:00 +4°C° 0 mm 3 m/S 731 mmHg 74%
    06:00 +4°C° 0 mm 3 m/S 731 mmHg 74%
    07:00 +4°C° 0 mm 3 m/S 731 mmHg 74%
    08:00 +5°C° 0 mm 3 m/S 731 mmHg 69%
    09:00 +5°C° 0 mm 3 m/S 730 mmHg 63%
    10:00 +7°C° 0 mm 2 m/S 730 mmHg 58%
    11:00 +7°C° 0.1 mm 3 m/S 730 mmHg 61%
    12:00 +5°C° 0.1 mm 4 m/S 730 mmHg 64%
    13:00 +4°C° 0.1 mm 6 m/S 730 mmHg 67%
    14:00 +4°C° 0.1 mm 6 m/S 730 mmHg 60%
    15:00 +5°C° 0.1 mm 6 m/S 730 mmHg 53%
    16:00 +5°C° 0.1 mm 7 m/S 730 mmHg 46%
    17:00 +4°C° 0 mm 7 m/S 730 mmHg 48%
    18:00 +3°C° 0 mm 7 m/S 731 mmHg 49%
    19:00 +2°C° 0 mm 7 m/S 731 mmHg 51%
    20:00 +2°C° 0 mm 7 m/S 732 mmHg 53%
    21:00 0°C° 0 mm 7 m/S 732 mmHg 56%
    22:00 0°C° 0 mm 7 m/S 732 mmHg 59%
    23:00 0°C° 0 mm 7 m/S 733 mmHg 59%

    27 Februar, Donnerstag

    Zeit Temperatur Niederschläge Wind Luftdruck Luftfeuchtigkeit
    00:00 -1°C° 0 mm 6 m/S 733 mmHg 60%
    01:00 -1°C° 0 mm 6 m/S 734 mmHg 60%
    02:00 -1°C° 0 mm 6 m/S 734 mmHg 63%
    03:00 -1°C° 0 mm 6 m/S 734 mmHg 66%
    04:00 -2°C° 0 mm 6 m/S 735 mmHg 69%
    05:00 -2°C° 0 mm 6 m/S 735 mmHg 69%
    06:00 -1°C° 0 mm 6 m/S 736 mmHg 69%
    07:00 0°C° 0 mm 5 m/S 737 mmHg 70%
    08:00 -1°C° 0 mm 6 m/S 737 mmHg 66%
    09:00 0°C° 0 mm 7 m/S 738 mmHg 63%
    10:00 +2°C° 0 mm 7 m/S 739 mmHg 60%
    11:00 +3°C° 0 mm 7 m/S 739 mmHg 55%
    12:00 +4°C° 0 mm 7 m/S 739 mmHg 49%
    13:00 +4°C° 0 mm 7 m/S 739 mmHg 44%
    14:00 +4°C° 0 mm 6 m/S 738 mmHg 44%
    15:00 +4°C° 0 mm 6 m/S 738 mmHg 43%
    16:00 +5°C° 0 mm 5 m/S 738 mmHg 43%
    17:00 +5°C° 0 mm 4 m/S 738 mmHg 47%
    18:00 +4°C° 0 mm 3 m/S 737 mmHg 52%
    19:00 +4°C° 0 mm 2 m/S 737 mmHg 57%
    20:00 +4°C° 0 mm 2 m/S 737 mmHg 56%
    21:00 +3°C° 0 mm 3 m/S 737 mmHg 56%
    22:00 +3°C° 0 mm 3 m/S 736 mmHg 55%
    23:00 +3°C° 0 mm 3 m/S 736 mmHg 56%

    28 Februar, Freitag

    Zeit Temperatur Niederschläge Wind Luftdruck Luftfeuchtigkeit
    00:00 +3°C° 0 mm 3 m/S 735 mmHg 57%
    01:00 +4°C° 0 mm 2 m/S 735 mmHg 58%
    02:00 +4°C° 0 mm 2 m/S 734 mmHg 60%
    03:00 +3°C° 0 mm 2 m/S 734 mmHg 62%
    04:00 +3°C° 0 mm 2 m/S 733 mmHg 64%
    05:00 +3°C° 0 mm 3 m/S 733 mmHg 66%
    06:00 +3°C° 0 mm 3 m/S 733 mmHg 69%
    07:00 +4°C° 0 mm 3 m/S 733 mmHg 71%
    08:00 +5°C° 0 mm 4 m/S 734 mmHg 67%
    09:00 +7°C° 0 mm 5 m/S 734 mmHg 62%
    10:00 +8°C° 0 mm 6 m/S 735 mmHg 58%
    11:00 +9°C° 0 mm 7 m/S 735 mmHg 54%
    12:00 +9°C° 0 mm 7 m/S 735 mmHg 50%
    13:00 +10°C° 0 mm 8 m/S 735 mmHg 46%
    14:00 +10°C° 0 mm 7 m/S 736 mmHg 47%
    15:00 +9°C° 0 mm 6 m/S 736 mmHg 48%
    16:00 +9°C° 0 mm 6 m/S 736 mmHg 50%
    17:00 +8°C° 0 mm 5 m/S 736 mmHg 55%
    18:00 +8°C° 0 mm 5 m/S 737 mmHg 61%
    19:00 +7°C° 0 mm 5 m/S 737 mmHg 66%
    20:00 +6°C° 0 mm 4 m/S 738 mmHg 68%
    21:00 +7°C° 0 mm 3 m/S 738 mmHg 70%
    22:00 +6°C° 0 mm 2 m/S 738 mmHg 72%
    23:00 +6°C° 0 mm 2 m/S 738 mmHg 73%
    Mehr zeigen